Volver al catálogo

YAOGAN-36 04C

ActivoMilitarVLEO
NORAD 54750·PAYLOAD·🇨🇳 China

Lanzado Dec 14, 2022 desde Xichang Satellite Launch Center

Loading…

Próximos Pases (próximas 24 horas)

TLE

ActualizadoSource: Space-Track

Época: Sep 14, 2026, 22:07 UTC

1 54750U 22171E   26257.92162240  .00016435  00000-0  47554-3 0  9999
2 54750  34.9812 329.8202 0006011 227.3743 132.6469 15.34711026209273

Sigue YAOGAN-36 04C en tiempo real con AllMySat

Download on the App Store